| time (UTC) | temp C | wind direction | speed KPH | gust KPH | rain 1hr cm | rain 24hr cm | rain mn cm | humidity % | barometer mb |
| 20260507080024 | 10 | 350 | 3.2 | 4.8 | 0.00 | 0.05 | 0.00 | 90 | 1018.9 |
| 20260507074530 | 10 | 327 | 1.6 | 3.2 | 0.00 | 0.05 | 0.00 | 88 | 1018.9 |
| 20260507073010 | 10 | 339 | 3.2 | 8.0 | 0.00 | 0.05 | 0.00 | 88 | 1018.6 |
| 20260507071514 | 11 | 9 | 4.8 | 9.7 | 0.00 | 0.05 | 0.00 | 87 | 1018.1 |
| 20260507070017 | 11 | 5 | 3.2 | 9.7 | 0.00 | 0.05 | 0.00 | 87 | 1018.2 |
| 20260507064525 | 11 | 5 | 4.8 | 9.7 | 0.00 | 0.05 | 0.00 | 87 | 1018.0 |
| 20260507063027 | 11 | 360 | 4.8 | 4.8 | 0.00 | 0.05 | 0.00 | 86 | 1018.0 |
| 20260507061527 | 11 | 9 | 1.6 | 4.8 | 0.00 | 0.05 | 0.00 | 86 | 1017.7 |
| 20260507060028 | 11 | 30 | 1.6 | 3.2 | 0.00 | 0.05 | 0.00 | 85 | 1017.6 |
| 20260507054524 | 12 | 24 | 0.0 | 3.2 | 0.00 | 0.05 | 0.00 | 84 | 1017.3 |
| 20260507053026 | 12 | 32 | 1.6 | 4.8 | 0.00 | 0.05 | 0.00 | 83 | 1017.3 |
| 20260507051528 | 12 | 26 | 3.2 | 6.4 | 0.00 | 0.05 | 0.00 | 82 | 1017.2 |
| 20260507050028 | 12 | 48 | 1.6 | 9.7 | 0.00 | 0.05 | 0.00 | 81 | 1017.1 |
| 20260507044534 | 12 | 46 | 4.8 | 12.9 | 0.00 | 0.05 | 0.05 | 81 | 1016.8 |
| 20260507043029 | 13 | 26 | 4.8 | 14.5 | 0.00 | 0.05 | 0.05 | 80 | 1016.9 |
| 20260507041508 | 13 | 72 | 9.7 | 19.3 | 0.00 | 0.05 | 0.05 | 80 | 1017.1 |
| 20260507040012 | 12 | 53 | 4.8 | 9.7 | 0.00 | 0.05 | 0.05 | 80 | 1017.1 |
| 20260507034516 | 13 | 32 | 3.2 | 6.4 | 0.00 | 0.05 | 0.05 | 80 | 1017.1 |
| 20260507033021 | 13 | 44 | 3.2 | 12.9 | 0.00 | 0.05 | 0.05 | 79 | 1017.1 |
| 20260507031506 | 13 | 19 | 4.8 | 14.5 | 0.00 | 0.05 | 0.05 | 78 | 1017.2 |
| 20260507030011 | 13 | 30 | 8.0 | 14.5 | 0.00 | 0.05 | 0.05 | 77 | 1017.2 |
| 20260507024516 | 14 | 45 | 6.4 | 11.3 | 0.00 | 0.05 | 0.05 | 76 | 1017.0 |
| 20260507023020 | 14 | 67 | 3.2 | 11.3 | 0.00 | 0.05 | 0.05 | 75 | 1016.5 |
| 20260507021529 | 15 | 51 | 3.2 | 9.7 | 0.00 | 0.05 | 0.05 | 74 | 1016.4 |
| 20260507020006 | 15 | 38 | 3.2 | 14.5 | 0.00 | 0.05 | 0.05 | 73 | 1016.2 |
| 20260507014512 | 15 | 9 | 8.0 | 16.1 | 0.00 | 0.05 | 0.05 | 72 | 1015.8 |
| 20260507013016 | 16 | 11 | 9.7 | 17.7 | 0.00 | 0.05 | 0.05 | 71 | 1015.5 |
| 20260507011529 | 16 | 352 | 11.3 | 19.3 | 0.00 | 0.05 | 0.05 | 69 | 1015.3 |
| 20260507010028 | 17 | 10 | 11.3 | 19.3 | 0.00 | 0.05 | 0.05 | 68 | 1015.1 |
| 20260507004511 | 17 | 26 | 9.7 | 19.3 | 0.00 | 0.05 | 0.05 | 66 | 1014.9 |
| 20260507003016 | 18 | 9 | 8.0 | 14.5 | 0.00 | 0.05 | 0.05 | 66 | 1014.6 |
| 20260507001521 | 19 | 58 | 4.8 | 14.5 | 0.00 | 0.05 | 0.05 | 64 | 1014.5 |
| 20260507000027 | 20 | 60 | 4.8 | 12.9 | 0.00 | 0.05 | 0.05 | 63 | 1014.3 |
| 20260506234508 | 20 | 10 | 4.8 | 14.5 | 0.00 | 0.05 | 0.05 | 62 | 1014.2 |
| 20260506233016 | 20 | 36 | 8.0 | 14.5 | 0.00 | 0.05 | 0.05 | 61 | 1014.0 |
| 20260506231522 | 20 | 9 | 6.4 | 19.3 | 0.00 | 0.05 | 0.05 | 60 | 1014.1 |
| 20260506230024 | 20 | 338 | 8.0 | 17.7 | 0.00 | 0.05 | 0.05 | 62 | 1013.9 |
| 20260506224525 | 20 | 40 | 6.4 | 14.5 | 0.00 | 0.05 | 0.05 | 63 | 1013.8 |
| 20260506223016 | 19 | 28 | 8.0 | 17.7 | 0.00 | 0.05 | 0.05 | 62 | 1013.6 |
| 20260506221520 | 20 | 36 | 8.0 | 17.7 | 0.00 | 0.05 | 0.05 | 61 | 1013.4 |
| 20260506220030 | 19 | 22 | 4.8 | 16.1 | 0.00 | 0.05 | 0.05 | 63 | 1013.6 |
| 20260506214527 | 19 | 5 | 9.7 | 19.3 | 0.00 | 0.05 | 0.05 | 63 | 1013.6 |
| 20260506213015 | 18 | 344 | 8.0 | 16.1 | 0.00 | 0.05 | 0.05 | 65 | 1013.7 |
| 20260506211516 | 18 | 31 | 9.7 | 22.5 | 0.00 | 0.05 | 0.05 | 65 | 1014.0 |
| 20260506210021 | 17 | 342 | 9.7 | 20.9 | 0.00 | 0.05 | 0.05 | 66 | 1014.4 |
| 20260506204526 | 17 | 74 | 4.8 | 14.5 | 0.00 | 0.05 | 0.05 | 67 | 1014.2 |
| 20260506203026 | 16 | 40 | 4.8 | 12.9 | 0.00 | 0.05 | 0.05 | 68 | 1014.4 |
| 20260506201519 | 16 | 40 | 4.8 | 16.1 | 0.00 | 0.05 | 0.05 | 69 | 1014.6 |
| 20260506200025 | 16 | 51 | 4.8 | 19.3 | 0.00 | 0.05 | 0.05 | 71 | 1014.7 |
| 20260506194523 | 16 | 55 | 6.4 | 16.1 | 0.00 | 0.05 | 0.05 | 71 | 1014.8 |
| 20260506193030 | 16 | 22 | 8.0 | 11.3 | 0.00 | 0.05 | 0.05 | 72 | 1015.1 |
| 20260506191528 | 15 | 52 | 6.4 | 14.5 | 0.00 | 0.05 | 0.05 | 73 | 1015.1 |
| 20260506190019 | 15 | 350 | 8.0 | 16.1 | 0.00 | 0.05 | 0.05 | 73 | 1015.3 |
| 20260506184527 | 15 | 327 | 8.0 | 14.5 | 0.00 | 0.05 | 0.05 | 74 | 1015.5 |
| 20260506183026 | 14 | 26 | 9.7 | 20.9 | 0.00 | 0.05 | 0.05 | 76 | 1015.5 |
| 20260506181530 | 13 | 346 | 12.9 | 20.9 | 0.00 | 0.05 | 0.05 | 79 | 1015.5 |
| 20260506180018 | 12 | 19 | 12.9 | 24.1 | 0.00 | 0.05 | 0.05 | 81 | 1015.3 |
| 20260506174524 | 12 | 9 | 9.7 | 19.3 | 0.00 | 0.05 | 0.05 | 84 | 1015.7 |
| 20260506173025 | 11 | 352 | 11.3 | 19.3 | 0.00 | 0.05 | 0.05 | 86 | 1015.9 |
| 20260506171539 | 11 | 360 | 14.5 | 20.9 | 0.00 | 0.05 | 0.05 | 88 | 1015.4 |
| 20260506170029 | 10 | 9 | 9.7 | 19.3 | 0.00 | 0.05 | 0.05 | 89 | 1015.8 |
| 20260506164524 | 10 | 22 | 11.3 | 19.3 | 0.00 | 0.05 | 0.05 | 89 | 1016.1 |
| 20260506163038 | 10 | 352 | 11.3 | 19.3 | 0.00 | 0.05 | 0.05 | 89 | 1015.9 |
| 20260506161530 | 10 | 40 | 14.5 | 24.1 | 0.00 | 0.05 | 0.05 | 89 | 1015.3 |
| 20260506160030 | 10 | 40 | 11.3 | 22.5 | 0.00 | 0.05 | 0.05 | 89 | 1015.2 |
| 20260506154536 | 10 | 15 | 19.3 | 30.6 | 0.00 | 0.05 | 0.05 | 89 | 1014.9 |
| 20260506153024 | 10 | 22 | 19.3 | 29.0 | 0.00 | 0.05 | 0.05 | 89 | 1014.3 |
| 20260506151525 | 10 | 20 | 12.9 | 22.5 | 0.03 | 0.05 | 0.05 | 90 | 1014.5 |
| 20260506150028 | 10 | 17 | 14.5 | 20.9 | 0.05 | 0.05 | 0.05 | 89 | 1014.8 |
| 20260506144527 | 10 | 36 | 16.1 | 22.5 | 0.05 | 0.05 | 0.05 | 90 | 1014.7 |
| 20260506143022 | 10 | 47 | 6.4 | 19.3 | 0.05 | 0.05 | 0.05 | 90 | 1014.7 |
| 20260506141526 | 10 | 22 | 11.3 | 17.7 | 0.03 | 0.03 | 0.03 | 88 | 1015.9 |
| 20260506140034 | 10 | 329 | 4.8 | 16.1 | 0.00 | 0.00 | 0.00 | 87 | 1016.4 |
| 20260506134528 | 10 | 28 | 8.0 | 12.9 | 0.00 | 0.00 | 0.00 | 85 | 1015.2 |
| 20260506133027 | 10 | 12 | 9.7 | 27.4 | 0.00 | 0.00 | 0.00 | 85 | 1015.4 |
| 20260506131524 | 10 | 16 | 11.3 | 22.5 | 0.00 | 0.00 | 0.00 | 84 | 1014.3 |
| 20260506130008 | 10 | 11 | 8.0 | 25.7 | 0.00 | 0.00 | 0.00 | 82 | 1014.7 |
| 20260506124508 | 10 | 352 | 16.1 | 22.5 | 0.00 | 0.00 | 0.00 | 82 | 1015.0 |
| 20260506123012 | 10 | 34 | 16.1 | 27.4 | 0.00 | 0.00 | 0.00 | 82 | 1013.5 |
| 20260506121506 | 10 | 18 | 14.5 | 25.7 | 0.00 | 0.00 | 0.00 | 82 | 1013.1 |
| 20260506120008 | 11 | 36 | 9.7 | 25.7 | 0.00 | 0.00 | 0.00 | 83 | 1013.0 |
| 20260506114513 | 11 | 17 | 11.3 | 25.7 | 0.00 | 0.00 | 0.00 | 83 | 1012.9 |
| 20260506113017 | 11 | 334 | 11.3 | 25.7 | 0.00 | 0.00 | 0.00 | 83 | 1013.2 |
| 20260506111516 | 11 | 5 | 12.9 | 27.4 | 0.00 | 0.00 | 0.00 | 83 | 1012.9 |
| 20260506110009 | 11 | 12 | 12.9 | 25.7 | 0.00 | 0.00 | 0.00 | 83 | 1013.1 |
| 20260506104510 | 11 | 346 | 17.7 | 25.7 | 0.00 | 0.00 | 0.00 | 83 | 1012.5 |
| 20260506103020 | 11 | 18 | 14.5 | 25.7 | 0.00 | 0.00 | 0.00 | 83 | 1012.0 |
| 20260506101514 | 11 | 9 | 14.5 | 24.1 | 0.00 | 0.00 | 0.00 | 82 | 1011.9 |
| 20260506100005 | 11 | 5 | 8.0 | 20.9 | 0.00 | 0.00 | 0.00 | 82 | 1011.8 |
| 20260506094510 | 12 | 351 | 14.5 | 20.9 | 0.00 | 0.00 | 0.00 | 82 | 1011.5 |
| 20260506093023 | 12 | 23 | 12.9 | 20.9 | 0.00 | 0.00 | 0.00 | 82 | 1011.3 |
| 20260506091517 | 12 | 352 | 11.3 | 19.3 | 0.00 | 0.00 | 0.00 | 83 | 1011.3 |
| 20260506090013 | 12 | 5 | 12.9 | 19.3 | 0.00 | 0.00 | 0.00 | 83 | 1011.1 |
| 20260506084511 | 12 | 360 | 8.0 | 16.1 | 0.00 | 0.00 | 0.00 | 84 | 1011.1 |
| 20260506083012 | 12 | 9 | 9.7 | 17.7 | 0.00 | 0.00 | 0.00 | 84 | 1011.2 |
| 20260506081518 | 12 | 20 | 6.4 | 14.5 | 0.00 | 0.00 | 0.00 | 85 | 1011.3 |